User: anonymous   Login
Location: Oshawa
(43.9000°N, 78.8670°W)
Time: 11:44:50
(UTC-04:00)
Language:

Cosmos 1707 Rocket - Orbit

View from above orbital plane
View from above orbital plane
View from above satellite
View from above satellite

Ground track
Ground track

The orbit data is extracted from the following two-line orbital elements,

1 16327U 85113B   15145.34852686  .00000244  00000-0  27029-4 0  9999
2 16327 082.5358 077.0263 0018071 317.9478 159.0057 14.83138690590131
Epoch (UTC): 25 May 2015 08:21:52
Eccentricity: 0.0018071
inclination: 82.5358°
perigee height: 607 km
apogee height: 632 km
right ascension of ascending node: 77.0263°
argument of perigee: 317.9478°
revolutions per day: 14.83138690
mean anomaly at epoch: 159.0057°
orbit number at epoch: 59013

The dashed part of the orbit path shows where the satellite is in the earth's shadow,  

DLR